[[{"header":{"parameterUnit":"m.s-1","parameterCategory":2,"la1":30.2991,"la2":30.254,"lo1":-89.0895,"lo2":-89.0444,"dy":0.0017,"dx":0.0017,"nx":28,"ny":28,"refTime":"2023-09-12T03:00:00:Z","depth":"0","parameterNumber":2,"parameterNumberName":"U-component_of_CURRENTS"},"data":[0,0,0,0,0,0,0,0,0,0,0,0,0,0,0,0,0,0,0,0,0,0,0,0,0,0,0,0,0,0,0,0,0,0,0,0,0,0,0,0,0,0,0,0,0,0,0,0,0,0,0,0,0,0,0,0,0,0,0.2238,0.2239,0,0.2324,0.2325,0.2325,0.2317,0.2316,0.2315,0.2314,0.2337,0.2339,0.234,0,0,0,0,0,0,0,0,0,0,0,0,0,0.208,0.2083,0.2237,0.2239,0.224,0.2324,0.2325,0.2326,0.2318,0.2316,0.2315,0.2314,0.2337,0.2339,0.234,0,0,0,0,0,0,0,0,0,0,0,0,0,0.2153,0.2084,0.2237,0.2248,0.225,0.2324,0.2325,0.2326,0.2318,0.2316,0.2315,0.2313,0.2336,0.2338,0.2341,0.2387,0,0,0.2348,0.2349,0,0,0,0,0,0,0,0,0.2149,0.2158,0.2245,0.2248,0.225,0.2311,0.2278,0.2344,0.2318,0.2289,0.2314,0.2312,0.2326,0.2329,0.2345,0.2389,0.2389,0.2348,0.235,0.2351,0.2351,0,0,0,0,0,0,0,0.2144,0.2155,0.2269,0.2247,0.225,0.2254,0.2263,0.2291,0.2312,0.2292,0.2292,0.2307,0.2326,0.2343,0.2346,0.239,0.2348,0.235,0.2352,0.2353,0.25,0.2502,0,0,0,0,0,0,0.2141,0.215,0.2266,0.2272,0.2198,0.2259,0.2268,0.2291,0.2313,0.2316,0.2308,0.2306,0.234,0.2343,0.2346,0.2416,0.2351,0.2353,0.2354,0.2498,0.2501,0.2503,0,0,0,0,0,0,0.2137,0.2151,0.2263,0.2214,0.2229,0.2263,0.2289,0.2293,0.2312,0.2327,0.2328,0.2322,0.2339,0.2343,0.2389,0.2415,0.2354,0.2356,0.2495,0.2499,0.2502,0.2546,0,0,0,0,0,0,0.2132,0.2149,0.2164,0.2215,0.2232,0.2309,0.2291,0.2296,0.2325,0.2323,0.234,0.234,0.2338,0.2386,0.2391,0.2418,0.2358,0.2492,0.2496,0.2501,0.2541,0.255,0.2558,0,0,0,0,0,0.2127,0.2156,0.2165,0.2179,0.2252,0.231,0.232,0.2336,0.2327,0.2344,0.2364,0.234,0.2419,0.239,0.2396,0.2423,0.2489,0.2495,0.25,0.2537,0.2549,0.2558,0,0,0,0,0,0,0.2098,0.216,0.217,0.2217,0.2261,0.231,0.2332,0.2344,0.2375,0.237,0.2375,0.2379,0.2431,0.2431,0.2399,0.2483,0.2449,0.2456,0.2475,0.2486,0.2495,0.2483,0.236,0,0,0,0,0,0.2101,0.2136,0.2194,0.2231,0.2254,0.2295,0.232,0.2334,0.237,0.2381,0.2397,0.2421,0.2463,0.2474,0.2507,0.2552,0.2573,0.2575,0.2584,0.2591,0.259,0.2657,0.2671,0.2522,0.2522,0.2521,0,0,0.21,0.214,0.216,0.2227,0.2261,0.2303,0.2305,0.2349,0.238,0.238,0.2424,0.2456,0.2486,0.254,0.2562,0.2537,0.2652,0.2598,0.2603,0.2598,0.2664,0.2678,0.2691,0.2525,0.2525,0.2524,0,0,0.2117,0.2154,0.2186,0.2225,0.2282,0.2313,0.2328,0.2383,0.2401,0.2457,0.2472,0.2523,0.257,0.2604,0.2626,0.2706,0.2702,0.2713,0.2737,0.2803,0.2815,0.2826,0.2893,0.2909,0.2708,0.2708,0.2708,0,0.2112,0.2163,0.2204,0.2244,0.2279,0.2318,0.2358,0.2394,0.2454,0.2483,0.2472,0.2584,0.2603,0.2685,0.2709,0.2724,0.2758,0.2689,0.2812,0.2823,0.2834,0.2899,0.2917,0.271,0.271,0.271,0.271,0,0.215,0.2191,0.2216,0.2278,0.2321,0.2364,0.2419,0.2458,0.2485,0.2524,0.2609,0.2653,0.2715,0.2737,0.2743,0.2834,0.2836,0.2821,0.2778,0.2851,0.2916,0.2934,0.2714,0.2713,0.2713,0.2712,0,0,0.2141,0.2225,0.2233,0.2261,0.2341,0.238,0.2441,0.2515,0.2559,0.2615,0.2683,0.2761,0.2785,0.2813,0.2839,0.2889,0.2999,0.288,0.2882,0.2933,0.3153,0.3199,0.3222,0.3001,0.3004,0.3006,0.3176,0,0.2158,0.2226,0.2269,0.2333,0.2374,0.2428,0.2482,0.2551,0.2611,0.2685,0.2747,0.2823,0.2815,0.2853,0.2906,0.2981,0.3044,0.2955,0.3086,0.309,0.311,0.3243,0.3141,0.3288,0.3193,0.3195,0.3197,0,0.2179,0.2226,0.2284,0.2362,0.2384,0.2422,0.2518,0.2572,0.2682,0.2737,0.2822,0.2871,0.2974,0.2946,0.3103,0.3045,0.3104,0.315,0.3157,0.3192,0.3168,0.3198,0.3323,0.3173,0.3224,0.3222,0.322,0,0.2152,0.2235,0.2277,0.2304,0.2397,0.2427,0.2477,0.2582,0.2639,0.2773,0.2835,0.2955,0.3027,0.3113,0.3213,0.3165,0.3382,0.3328,0.3429,0.3432,0.3368,0.3361,0.3348,0.3444,0.3443,0.3443,0.3442,0,0.2158,0.219,0.2259,0.2283,0.2328,0.2403,0.2466,0.2543,0.2659,0.2744,0.2849,0.2955,0.3071,0.3199,0.3262,0.3426,0.3432,0.3471,0.3495,0.3385,0.3378,0.3261,0.3189,0.3449,0.3448,0.3446,0.3445,0,0.2121,0.2168,0.2214,0.2295,0.2313,0.2343,0.2437,0.2497,0.2613,0.2731,0.2777,0.2978,0.3172,0.3292,0.3471,0.3509,0.3553,0.369,0.3562,0.3568,0.3503,0.3439,0.3405,0.3315,0.383,0.3833,0.3835,0,0.2108,0.2126,0.2194,0.2212,0.2242,0.2294,0.2338,0.2459,0.2535,0.2753,0.2817,0.3043,0.3202,0.3502,0.3645,0.3811,0.3651,0.3798,0.369,0.3525,0.3471,0.3313,0.3225,0.3626,0.3626,0.3626,0.3626,0,0.2075,0.2092,0.2126,0.2161,0.2196,0.224,0.2314,0.236,0.2522,0.2643,0.2841,0.2982,0.3314,0.3478,0.3719,0.3807,0.3604,0.3808,0.366,0.3351,0.3154,0.3068,0.3484,0.3627,0.3627,0.3627,0.3627,0.3627,0.2031,0.2034,0.2068,0.2095,0.2135,0.2165,0.2182,0.2294,0.2397,0.2564,0.2777,0.2977,0.3244,0.3593,0.3664,0.3698,0.3656,0.3592,0.3547,0.3414,0.3265,0.3706,0.3859,0.386,0.3861,0.3862,0.3863,0,0.1955,0.1969,0.2002,0.2022,0.2033,0.208,0.2151,0.2175,0.2267,0.2482,0.2658,0.2946,0.3126,0.3322,0.349,0.3416,0.3255,0.3316,0.3013,0.2954,0.3372,0.3298,0.3306,0.3306,0.3306,0.3307,0.3307,0.3307,0.1912,0.1901,0.192,0.1903,0.1919,0.1905,0.1922,0.2,0.2131,0.232,0.2496,0.2681,0.2952,0.3143,0.3137,0.3092,0.2818,0.275,0.2702,0.2925,0.2942,0.2959,0.2868,0.2787,0.2786,0.2156,0.2152,0.2148]},{"header":{"parameterUnit":"m.s-1","parameterCategory":2,"la1":30.2991,"la2":30.254,"lo1":-89.0895,"lo2":-89.0444,"dy":0.0017,"dx":0.0017,"nx":28,"ny":28,"refTime":"2023-09-12T03:00:00:Z","depth":"0","parameterNumber":3,"parameterNumberName":"V-component_of_CURRENTS"},"data":[0,0,0,0,0,0,0,0,0,0,0,0,0,0,0,0,0,0,0,0,0,0,0,0,0,0,0,0,0,0,0,0,0,0,0,0,0,0,0,0,0,0,0,0,0,0,0,0,0,0,0,0,0,0,0,0,0,0,0.0428,0.0428,0,0.0369,0.0368,0.0368,0.0322,0.0322,0.0321,0.0321,0.0261,0.026,0.0259,0,0,0,0,0,0,0,0,0,0,0,0,0,0.0479,0.0478,0.0428,0.0427,0.0427,0.0369,0.0368,0.0368,0.0322,0.0322,0.0321,0.032,0.0261,0.026,0.0258,0,0,0,0,0,0,0,0,0,0,0,0,0,0.0443,0.0478,0.0428,0.0396,0.0393,0.0369,0.0368,0.0367,0.0322,0.0322,0.0321,0.032,0.0262,0.026,0.0258,0.0263,0,0,0.0253,0.0252,0,0,0,0,0,0,0,0,0.0445,0.0441,0.0402,0.0398,0.0394,0.0351,0.0364,0.0332,0.0322,0.035,0.0321,0.032,0.0291,0.0287,0.0279,0.0261,0.0258,0.0253,0.0252,0.0251,0.0251,0,0,0,0,0,0,0,0.0448,0.0443,0.0406,0.0401,0.0397,0.0377,0.0371,0.0358,0.0326,0.0348,0.0344,0.0336,0.0289,0.028,0.0277,0.0257,0.0253,0.0252,0.0251,0.025,0.0219,0.0219,0,0,0,0,0,0,0.0455,0.0446,0.0408,0.0404,0.0417,0.0377,0.037,0.0367,0.0326,0.0319,0.0337,0.0334,0.0284,0.0279,0.0275,0.028,0.0251,0.025,0.0249,0.0219,0.0219,0.0219,0,0,0,0,0,0,0.0457,0.0452,0.041,0.0422,0.0415,0.0377,0.0373,0.0366,0.0356,0.0318,0.0311,0.0334,0.0283,0.0277,0.0266,0.0278,0.0249,0.0248,0.0218,0.0219,0.0219,0.029,0,0,0,0,0,0,0.0458,0.0454,0.0459,0.0423,0.0415,0.0405,0.0373,0.0365,0.0352,0.0348,0.0314,0.0307,0.0282,0.0269,0.0264,0.0275,0.0246,0.0218,0.0218,0.0219,0.0288,0.0293,0.0298,0,0,0,0,0,0.046,0.0476,0.046,0.0456,0.0423,0.0406,0.0401,0.037,0.0353,0.0357,0.033,0.0308,0.0267,0.0268,0.0262,0.0273,0.0218,0.0218,0.0219,0.0286,0.0292,0.0297,0,0,0,0,0,0,0.051,0.0471,0.0454,0.0458,0.0436,0.0398,0.0401,0.0376,0.0358,0.0354,0.0316,0.0308,0.0301,0.0276,0.0278,0.0262,0.0237,0.0236,0.0289,0.0295,0.03,0.0319,0.0245,0,0,0,0,0,0.0522,0.0519,0.048,0.0488,0.0477,0.044,0.043,0.0407,0.0383,0.0373,0.0347,0.0319,0.0299,0.0289,0.0268,0.0266,0.024,0.0266,0.0271,0.0275,0.0286,0.0254,0.0257,0.022,0.022,0.022,0,0,0.0545,0.0523,0.0523,0.0497,0.0478,0.0473,0.0433,0.0423,0.0421,0.0371,0.0368,0.0338,0.0302,0.0296,0.029,0.0278,0.0272,0.0276,0.028,0.0288,0.0255,0.0258,0.0262,0.022,0.022,0.022,0,0,0.0587,0.0569,0.0576,0.0559,0.053,0.0507,0.0506,0.0469,0.0455,0.0444,0.0407,0.0388,0.0356,0.0335,0.0319,0.0339,0.0299,0.0326,0.0369,0.0338,0.0341,0.0343,0.0319,0.0318,0.0328,0.0328,0.0328,0,0.0615,0.0616,0.0579,0.058,0.0576,0.0525,0.0536,0.0515,0.048,0.0478,0.0452,0.0407,0.0376,0.037,0.0373,0.0353,0.0327,0.0353,0.0346,0.0347,0.0349,0.0323,0.0322,0.0332,0.0331,0.0331,0.0331,0,0.0652,0.0655,0.0662,0.0644,0.0638,0.064,0.0604,0.0596,0.0569,0.0544,0.053,0.0484,0.0458,0.044,0.0412,0.0408,0.0385,0.0357,0.0336,0.0357,0.0328,0.0325,0.0337,0.0335,0.0334,0.0334,0,0,0.0703,0.069,0.0691,0.07,0.0671,0.0674,0.0673,0.0662,0.0672,0.0624,0.0634,0.0585,0.0554,0.0534,0.0492,0.0463,0.0447,0.0418,0.0415,0.0404,0.0381,0.0377,0.0373,0.0415,0.0415,0.0414,0.0359,0,0.0742,0.0767,0.0747,0.0778,0.079,0.0754,0.0759,0.0743,0.0726,0.0723,0.0664,0.0654,0.059,0.0583,0.0542,0.0476,0.0442,0.0465,0.0354,0.0351,0.0353,0.0371,0.0371,0.0323,0.0356,0.0356,0.0355,0,0.0776,0.0791,0.083,0.0846,0.0848,0.0858,0.0873,0.0873,0.0849,0.0838,0.0811,0.076,0.0717,0.0655,0.0549,0.0565,0.0481,0.042,0.0415,0.0387,0.0343,0.0304,0.0316,0.0099,0.0351,0.0351,0.0351,0,0.0827,0.0849,0.0889,0.0892,0.0898,0.0915,0.0918,0.0909,0.093,0.0917,0.0927,0.0856,0.0834,0.0717,0.0587,0.0564,0.047,0.0419,0.0336,0.0335,0.0302,0.0298,0.0101,0.0341,0.0341,0.0341,0.0341,0,0.087,0.0901,0.0917,0.0937,0.0984,0.0973,0.1025,0.1017,0.1032,0.1076,0.0991,0.1014,0.0846,0.0767,0.0627,0.0489,0.0497,0.0354,0.0323,0.0327,0.0326,0.0109,0.0021,0.0339,0.0339,0.034,0.034,0,0.0915,0.0922,0.097,0.0997,0.1007,0.1044,0.1089,0.1137,0.1132,0.119,0.1189,0.1135,0.1046,0.0874,0.0706,0.0559,0.0316,0.0361,0.0383,0.0356,0.0067,-0.0014,-0.017,-0.0242,0.0252,0.0252,0.0252,0,0.0937,0.0966,0.1016,0.1053,0.1068,0.1121,0.1164,0.1184,0.1245,0.1277,0.1316,0.1251,0.1237,0.099,0.0737,0.0501,0.0322,0.0316,0.0267,0.0059,-0.0056,-0.0099,-0.0152,0.0246,0.0245,0.0245,0.0245,0,0.0986,0.1004,0.1048,0.1119,0.1178,0.1246,0.1311,0.1367,0.141,0.1464,0.1531,0.1523,0.1308,0.1096,0.0766,0.0575,0.0189,0.0303,0.0073,-0.0081,-0.0126,-0.0211,0.0273,0.0243,0.0243,0.0243,0.0243,0.0243,0.1026,0.1064,0.1125,0.1192,0.1266,0.1357,0.1423,0.1512,0.1614,0.1708,0.1712,0.1754,0.1395,0.0965,0.0681,0.013,0.0176,-0.005,-0.0132,-0.0158,-0.023,0.0261,0.0206,0.0206,0.0206,0.0206,0.0206,0,0.1066,0.1114,0.1192,0.1279,0.1369,0.1394,0.1516,0.1593,0.1723,0.1855,0.1934,0.179,0.1342,0.0852,0.0137,-0.0245,-0.0376,-0.0467,-0.0567,-0.06,-0.0192,-0.0199,-0.0326,-0.0326,-0.0326,-0.0325,-0.0325,-0.0325,0.1094,0.1166,0.1204,0.1347,0.1414,0.1532,0.1602,0.1724,0.184,0.1986,0.204,0.2056,0.1622,0.0366,-0.0532,-0.0736,-0.0984,-0.0999,-0.1129,-0.0913,-0.0882,-0.0853,-0.0885,-0.1154,-0.1155,-0.1499,-0.1503,-0.1506]}],[{"header":{"parameterUnit":"m.s-1","parameterCategory":2,"la1":30.2991,"la2":30.254,"lo1":-89.0895,"lo2":-89.0444,"dy":0.0017,"dx":0.0017,"nx":28,"ny":28,"refTime":"2023-09-12T03:00:00:Z","depth":"2","parameterNumber":2,"parameterNumberName":"U-component_of_CURRENTS"},"data":[0,0,0,0,0,0,0,0,0,0,0,0,0,0,0,0,0,0,0,0,0,0,0,0,0,0,0,0,0,0,0,0,0,0,0,0,0,0,0,0,0,0,0,0,0,0,0,0,0,0,0,0,0,0,0,0,0,0,0.1824,0.1824,0,0.1865,0.1865,0.1865,0.1852,0.1851,0.185,0.185,0.1867,0.1868,0.1869,0,0,0,0,0,0,0,0,0,0,0,0,0,0.1722,0.1724,0.1823,0.1824,0.1825,0.1865,0.1865,0.1865,0.1852,0.1851,0.185,0.1849,0.1867,0.1868,0.187,0,0,0,0,0,0,0,0,0,0,0,0,0,0.1762,0.1724,0.1823,0.1825,0.1825,0.1865,0.1865,0.1865,0.1852,0.1851,0.185,0.1849,0.1867,0.1868,0.187,0.19,0,0,0.1875,0.1875,0,0,0,0,0,0,0,0,0.176,0.1766,0.1824,0.1825,0.1826,0.1854,0.1836,0.1877,0.1852,0.1839,0.185,0.1848,0.1863,0.1865,0.1872,0.1901,0.1902,0.1875,0.1876,0.1877,0.1877,0,0,0,0,0,0,0,0.1757,0.1764,0.1837,0.1825,0.1826,0.182,0.1824,0.1843,0.1854,0.184,0.184,0.1849,0.1863,0.187,0.1872,0.1902,0.1875,0.1876,0.1877,0.1878,0.1975,0.1976,0,0,0,0,0,0,0.1759,0.1762,0.1836,0.1839,0.1792,0.1822,0.1827,0.1844,0.1854,0.1856,0.185,0.1848,0.1868,0.187,0.1873,0.1932,0.1877,0.1878,0.1879,0.1973,0.1975,0.1977,0,0,0,0,0,0,0.1757,0.1766,0.1834,0.1802,0.1811,0.1826,0.1844,0.1845,0.1855,0.1862,0.1862,0.1858,0.1867,0.187,0.1899,0.1932,0.1879,0.188,0.1971,0.1974,0.1976,0.2037,0,0,0,0,0,0,0.1754,0.1765,0.1779,0.1803,0.1813,0.1863,0.1845,0.1847,0.1863,0.1861,0.187,0.187,0.1867,0.1897,0.1901,0.1933,0.1882,0.1969,0.1973,0.1975,0.2033,0.2041,0.2048,0,0,0,0,0,0.1751,0.1772,0.178,0.1789,0.1831,0.1864,0.1868,0.1873,0.1864,0.1875,0.1883,0.187,0.1918,0.19,0.1904,0.1937,0.1968,0.1972,0.1975,0.2029,0.2039,0.2048,0,0,0,0,0,0,0.1732,0.1774,0.1782,0.1815,0.1841,0.1862,0.1877,0.1879,0.1895,0.1894,0.1891,0.1893,0.1933,0.1928,0.1907,0.1974,0.1941,0.1946,0.1981,0.199,0.1998,0.2014,0.1883,0,0,0,0,0,0.1738,0.1767,0.18,0.1828,0.1843,0.1862,0.1875,0.1882,0.19,0.1905,0.1913,0.1927,0.1953,0.1963,0.1982,0.2019,0.2042,0.2043,0.205,0.2057,0.2074,0.2137,0.2153,0.1989,0.1989,0.1989,0,0,0.1737,0.1766,0.1781,0.1826,0.1846,0.1876,0.1867,0.1896,0.1921,0.1906,0.1942,0.1956,0.197,0.2012,0.2029,0.201,0.2118,0.2061,0.2067,0.2081,0.2143,0.2159,0.2173,0.1991,0.1991,0.199,0,0,0.1751,0.178,0.1806,0.1833,0.1873,0.189,0.19,0.1931,0.1946,0.1985,0.1986,0.2021,0.205,0.2074,0.2087,0.2149,0.2158,0.2153,0.2203,0.2264,0.2279,0.2291,0.235,0.2367,0.2153,0.2153,0.2153,0,0.1746,0.1791,0.1817,0.185,0.1877,0.1898,0.193,0.1955,0.199,0.2018,0.2002,0.2079,0.2083,0.2151,0.2173,0.2168,0.2204,0.2165,0.2275,0.2288,0.23,0.2357,0.2375,0.2156,0.2156,0.2156,0.2155,0,0.1779,0.1816,0.1835,0.1887,0.1917,0.1952,0.1991,0.2026,0.2047,0.2073,0.2143,0.2162,0.2209,0.2217,0.2215,0.2306,0.2306,0.228,0.2252,0.2321,0.2376,0.2394,0.2161,0.216,0.2159,0.2158,0,0,0.177,0.1843,0.1851,0.1883,0.1942,0.1971,0.2029,0.2092,0.2141,0.2177,0.2245,0.2293,0.231,0.2328,0.2335,0.2386,0.2499,0.2376,0.2377,0.2435,0.2649,0.2497,0.2502,0.2497,0.2501,0.2503,0.2656,0,0.1789,0.185,0.1886,0.1948,0.1985,0.2033,0.2085,0.2145,0.2197,0.2268,0.2309,0.2369,0.235,0.2382,0.2436,0.2488,0.255,0.2461,0.2573,0.2577,0.2434,0.2518,0.234,0.2448,0.2674,0.2677,0.2679,0,0.1815,0.1856,0.1912,0.1993,0.2014,0.2051,0.2152,0.2204,0.2305,0.235,0.2424,0.2454,0.2549,0.2509,0.265,0.2599,0.2639,0.2668,0.2674,0.2524,0.2458,0.2415,0.2472,0.2709,0.2707,0.2704,0.2702,0,0.1804,0.1881,0.1926,0.1952,0.2038,0.2079,0.2129,0.2227,0.2292,0.2406,0.2465,0.2567,0.263,0.2703,0.2753,0.2725,0.2895,0.2856,0.2762,0.2752,0.2616,0.2587,0.2963,0.2962,0.2962,0.2962,0.2961,0,0.1822,0.1861,0.1922,0.1949,0.2012,0.2074,0.2157,0.223,0.2344,0.242,0.2502,0.258,0.2685,0.2775,0.2811,0.2841,0.2945,0.2796,0.2786,0.2629,0.2601,0.2829,0.2811,0.2967,0.2966,0.2965,0.2964,0,0.181,0.1851,0.1905,0.1983,0.2008,0.2053,0.2161,0.2219,0.2335,0.2442,0.2482,0.2635,0.274,0.2818,0.2947,0.2899,0.2945,0.2925,0.2725,0.2685,0.2756,0.274,0.2858,0.2854,0.2851,0.2848,0.2846,0,0.1812,0.1834,0.1907,0.1926,0.1959,0.2029,0.2071,0.2199,0.2261,0.2456,0.2498,0.265,0.2692,0.2816,0.2811,0.2845,0.291,0.2661,0.2547,0.277,0.2749,0.2738,0.2727,0.2421,0.2415,0.2411,0.2407,0,0.18,0.1819,0.185,0.1891,0.1928,0.1982,0.2053,0.2108,0.2252,0.2345,0.2457,0.2509,0.261,0.2556,0.2581,0.2568,0.2631,0.256,0.2898,0.2431,0.2357,0.2336,0.2341,0.2366,0.237,0.2373,0.2375,0.2377,0.1771,0.1783,0.1809,0.1846,0.1879,0.1912,0.1941,0.2017,0.2107,0.2189,0.2299,0.23,0.2341,0.2267,0.2238,0.2236,0.2383,0.2288,0.2304,0.2325,0.2203,0.2122,0.2067,0.2069,0.2071,0.2073,0.2074,0,0.1725,0.1738,0.1761,0.1794,0.1799,0.1846,0.1906,0.1904,0.1957,0.2013,0.2046,0.1868,0.1852,0.1925,0.1858,0.1837,0.1843,0.1773,0.179,0.1831,0.1868,0.1724,0.1461,0.1459,0.1457,0.1455,0,0,0.17,0.1696,0.1711,0.1701,0.1718,0.1713,0.1732,0.1728,0.1759,0.1666,0.1641,0.1719,0.1835,0.1607,0.16,0.1533,0.1667,0.1476,0.1972,0.2034,0.2068,0.2172,0.1996,0,0,0,0,0]},{"header":{"parameterUnit":"m.s-1","parameterCategory":2,"la1":30.2991,"la2":30.254,"lo1":-89.0895,"lo2":-89.0444,"dy":0.0017,"dx":0.0017,"nx":28,"ny":28,"refTime":"2023-09-12T03:00:00:Z","depth":"2","parameterNumber":3,"parameterNumberName":"V-component_of_CURRENTS"},"data":[0,0,0,0,0,0,0,0,0,0,0,0,0,0,0,0,0,0,0,0,0,0,0,0,0,0,0,0,0,0,0,0,0,0,0,0,0,0,0,0,0,0,0,0,0,0,0,0,0,0,0,0,0,0,0,0,0,0,-0.0192,-0.0192,0,-0.0242,-0.0242,-0.0242,-0.0283,-0.0283,-0.0284,-0.0285,-0.0321,-0.0321,-0.0322,0,0,0,0,0,0,0,0,0,0,0,0,0,-0.0135,-0.0135,-0.0192,-0.0192,-0.0193,-0.0242,-0.0242,-0.0243,-0.0283,-0.0283,-0.0284,-0.0285,-0.0321,-0.0321,-0.0322,0,0,0,0,0,0,0,0,0,0,0,0,0,-0.0168,-0.0135,-0.0191,-0.022,-0.0223,-0.0241,-0.0242,-0.0243,-0.0283,-0.0283,-0.0284,-0.0285,-0.0321,-0.0321,-0.0322,-0.031,0,0,-0.0324,-0.0324,0,0,0,0,0,0,0,0,-0.0166,-0.017,-0.0215,-0.0218,-0.0222,-0.0258,-0.0235,-0.0265,-0.0282,-0.0259,-0.0285,-0.0285,-0.0299,-0.0301,-0.0307,-0.0311,-0.0313,-0.0324,-0.0324,-0.0325,-0.0325,0,0,0,0,0,0,0,-0.0164,-0.0168,-0.021,-0.0216,-0.022,-0.0232,-0.0237,-0.0241,-0.0272,-0.0261,-0.0264,-0.0272,-0.0301,-0.0306,-0.0308,-0.0313,-0.0324,-0.0325,-0.0325,-0.0325,-0.0326,-0.0325,0,0,0,0,0,0,-0.0159,-0.0166,-0.0208,-0.0212,-0.0197,-0.0232,-0.0238,-0.0244,-0.0273,-0.0278,-0.0271,-0.0273,-0.0305,-0.0307,-0.031,-0.0296,-0.0325,-0.0325,-0.0326,-0.0326,-0.0326,-0.0325,0,0,0,0,0,0,-0.0158,-0.0163,-0.0206,-0.0191,-0.0198,-0.0232,-0.0239,-0.0245,-0.025,-0.0281,-0.0286,-0.027,-0.0306,-0.0309,-0.0311,-0.0298,-0.0326,-0.0326,-0.0327,-0.0326,-0.0325,-0.0269,0,0,0,0,0,0,-0.0156,-0.0162,-0.0157,-0.0191,-0.0198,-0.0206,-0.0239,-0.0245,-0.0254,-0.0258,-0.0281,-0.0286,-0.0306,-0.0309,-0.0311,-0.0299,-0.0327,-0.0327,-0.0326,-0.0326,-0.0271,-0.0266,-0.0262,0,0,0,0,0,-0.0154,-0.0142,-0.0156,-0.0161,-0.0193,-0.0205,-0.0209,-0.0237,-0.0253,-0.0245,-0.0268,-0.0285,-0.0307,-0.0309,-0.0312,-0.0299,-0.0328,-0.0327,-0.0326,-0.0273,-0.0267,-0.0262,0,0,0,0,0,0,-0.0111,-0.0146,-0.0162,-0.0161,-0.0178,-0.0213,-0.0207,-0.0229,-0.024,-0.0245,-0.0275,-0.028,-0.028,-0.0296,-0.0298,-0.0299,-0.0321,-0.0321,-0.0281,-0.0275,-0.0271,-0.025,-0.0327,0,0,0,0,0,-0.01,-0.0104,-0.0136,-0.0134,-0.014,-0.0172,-0.0179,-0.02,-0.0219,-0.0226,-0.0245,-0.0265,-0.0277,-0.0281,-0.0295,-0.0287,-0.0309,-0.0283,-0.0279,-0.0275,-0.026,-0.0294,-0.0291,-0.0322,-0.0322,-0.0322,0,0,-0.0083,-0.0104,-0.0105,-0.0126,-0.0141,-0.0137,-0.0177,-0.0184,-0.018,-0.0226,-0.022,-0.0247,-0.0273,-0.0271,-0.0272,-0.0282,-0.0276,-0.0274,-0.027,-0.0257,-0.0293,-0.029,-0.0287,-0.0322,-0.0322,-0.0322,0,0,-0.005,-0.0066,-0.0058,-0.0067,-0.0089,-0.0107,-0.0105,-0.0135,-0.0145,-0.0147,-0.0183,-0.0203,-0.0214,-0.0236,-0.0247,-0.0224,-0.0253,-0.0228,-0.0183,-0.0217,-0.0214,-0.0213,-0.0231,-0.0231,-0.0223,-0.0223,-0.0223,0,-0.0027,-0.0023,-0.0054,-0.0046,-0.0044,-0.0088,-0.007,-0.0083,-0.0111,-0.0111,-0.0136,-0.0167,-0.0198,-0.0197,-0.0196,-0.0213,-0.0229,-0.0201,-0.021,-0.0209,-0.0208,-0.0227,-0.0228,-0.022,-0.0221,-0.0221,-0.0221,0,0.0009,0.0017,0.0026,0.002,0.0021,0.0029,0.0005,0.0004,-0.0018,-0.0038,-0.0046,-0.0094,-0.0113,-0.0131,-0.0155,-0.0159,-0.0172,-0.0203,-0.0222,-0.0202,-0.0223,-0.0225,-0.0216,-0.0217,-0.0218,-0.0219,0,0,0.0044,0.005,0.0053,0.007,0.0057,0.0064,0.0077,0.0077,0.0092,0.0052,0.0066,0.0019,-0.0016,-0.0031,-0.0074,-0.0105,-0.0124,-0.0142,-0.0146,-0.0155,-0.0182,-0.0239,-0.0247,-0.0156,-0.0156,-0.0156,-0.0197,0,0.0082,0.0118,0.0108,0.0153,0.0174,0.0152,0.0174,0.0167,0.0152,0.0155,0.0096,0.0087,0.0025,0.0013,-0.0027,-0.0093,-0.0127,-0.0109,-0.0204,-0.0206,-0.0256,-0.0251,-0.0216,-0.0255,-0.02,-0.02,-0.02,0,0.0118,0.0138,0.0187,0.0225,0.0235,0.0255,0.0284,0.0296,0.0283,0.0274,0.0246,0.0196,0.0153,0.0087,-0.0012,0.0006,-0.008,-0.0142,-0.0146,-0.0218,-0.0268,-0.0268,-0.0261,-0.0204,-0.0204,-0.0204,-0.0203,0,0.0156,0.0196,0.024,0.0251,0.0283,0.0308,0.0325,0.033,0.0358,0.0344,0.0355,0.0291,0.0266,0.0156,0.0018,0.0006,-0.0096,-0.0135,-0.0265,-0.0269,-0.0268,-0.0273,-0.0215,-0.0215,-0.0215,-0.0215,-0.0215,0,0.0198,0.0235,0.0263,0.0288,0.0355,0.0356,0.0421,0.0429,0.0449,0.0489,0.0416,0.0428,0.028,0.0196,0.0059,-0.0102,-0.0071,-0.025,-0.0286,-0.0248,-0.025,-0.0231,-0.0232,-0.0217,-0.0216,-0.0216,-0.0216,0,0.0231,0.0247,0.0305,0.0351,0.0375,0.042,0.0491,0.0531,0.0543,0.0592,0.0591,0.0541,0.0431,0.0267,0.0096,-0.0044,-0.02,-0.0272,-0.0211,-0.0241,-0.0357,-0.0354,-0.0409,-0.0412,-0.0414,-0.0415,-0.0417,0,0.0251,0.0282,0.0352,0.0391,0.0416,0.0484,0.0532,0.0575,0.0619,0.066,0.0684,0.0606,0.0538,0.0274,0.0036,-0.0209,-0.0234,-0.0348,-0.0384,-0.0348,-0.0377,-0.0372,-0.0367,-0.0349,-0.035,-0.0351,-0.0351,0,0.0287,0.0308,0.0348,0.043,0.049,0.0573,0.0642,0.0698,0.0744,0.0787,0.081,0.0757,0.0517,0.0284,-0.0045,-0.0208,-0.0307,-0.0372,-0.034,-0.0319,-0.0299,-0.0326,-0.0321,-0.0357,-0.0356,-0.0356,-0.0355,-0.0355,0.03,0.0335,0.0382,0.0461,0.0541,0.0634,0.0703,0.0779,0.0863,0.0925,0.088,0.0824,0.0567,0.0147,-0.0114,-0.0366,-0.0377,-0.0468,-0.0462,-0.0456,-0.0456,-0.0443,-0.0525,-0.0525,-0.0526,-0.0526,-0.0526,0,0.0299,0.0339,0.0409,0.0498,0.0583,0.0637,0.0755,0.0829,0.093,0.0981,0.0983,0.0739,0.0465,0.0196,-0.0189,-0.0456,-0.0445,-0.052,-0.0438,-0.0433,-0.0427,-0.0422,-0.0484,-0.0484,-0.0484,-0.0485,0,0,0.0293,0.0337,0.0374,0.0498,0.0582,0.0707,0.0782,0.091,0.0986,0.1034,0.1017,0.0905,0.0558,0.0289,-0.0048,-0.0251,-0.0277,-0.0292,-0.0303,-0.0162,-0.0153,-0.0383,-0.0367,0,0,0,0,0]}],[{"header":{"parameterUnit":"m.s-1","parameterCategory":2,"la1":30.2991,"la2":30.254,"lo1":-89.0895,"lo2":-89.0444,"dy":0.0017,"dx":0.0017,"nx":28,"ny":28,"refTime":"2023-09-12T03:00:00:Z","depth":"4","parameterNumber":2,"parameterNumberName":"U-component_of_CURRENTS"},"data":[0,0,0,0,0,0,0,0,0,0,0,0,0,0,0,0,0,0,0,0,0,0,0,0,0,0,0,0,0,0,0,0,0,0,0,0,0,0,0,0,0,0,0,0,0,0,0,0,0,0,0,0,0,0,0,0,0,0,0.0748,0.0748,0,0.0774,0.0774,0.0774,0.0809,0.081,0.0811,0.0811,0.0867,0.0868,0.0869,0,0,0,0,0,0,0,0,0,0,0,0,0,0.0704,0.0704,0.0747,0.0748,0.0749,0.0774,0.0774,0.0774,0.0809,0.081,0.0811,0.0812,0.0867,0.0868,0.0869,0,0,0,0,0,0,0,0,0,0,0,0,0,0.0724,0.0705,0.0747,0.0771,0.0773,0.0774,0.0774,0.0774,0.0809,0.081,0.0811,0.0812,0.0867,0.0868,0.0869,0.0852,0,0,0.0872,0.0873,0,0,0,0,0,0,0,0,0.0722,0.0725,0.0767,0.0769,0.0772,0.0791,0.0779,0.0803,0.0808,0.0793,0.0811,0.0813,0.0845,0.0848,0.0847,0.0855,0.0857,0.0872,0.0873,0.0873,0.0874,0,0,0,0,0,0,0,0.0721,0.0724,0.0756,0.0767,0.077,0.0772,0.0776,0.0783,0.0811,0.0794,0.0797,0.0804,0.0847,0.0846,0.0848,0.0858,0.0872,0.0873,0.0874,0.0874,0.0922,0.0922,0,0,0,0,0,0,0.0722,0.0723,0.0755,0.0757,0.0752,0.0772,0.0776,0.0782,0.081,0.0816,0.0803,0.0805,0.0843,0.0847,0.0851,0.0906,0.0873,0.0875,0.0875,0.0921,0.0922,0.0923,0,0,0,0,0,0,0.0721,0.0725,0.0754,0.0742,0.0746,0.0772,0.0778,0.0782,0.0804,0.0817,0.0823,0.0823,0.0844,0.0849,0.0874,0.0905,0.0875,0.0876,0.0921,0.0922,0.0922,0.0969,0,0,0,0,0,0,0.072,0.0724,0.0734,0.0742,0.0747,0.0765,0.0777,0.0782,0.0805,0.081,0.0836,0.0841,0.0845,0.0872,0.0875,0.0906,0.0877,0.092,0.0921,0.0922,0.0967,0.0971,0.0975,0,0,0,0,0,0.0718,0.0726,0.0734,0.0739,0.0758,0.0766,0.0768,0.0789,0.0806,0.0813,0.0833,0.0841,0.0881,0.0873,0.0876,0.0909,0.0919,0.0921,0.0922,0.0965,0.097,0.0975,0,0,0,0,0,0,0.0715,0.0731,0.074,0.0754,0.0765,0.0773,0.0786,0.0798,0.0818,0.0833,0.0844,0.085,0.0885,0.0883,0.0874,0.0924,0.0903,0.0905,0.0935,0.094,0.0944,0.0951,0.0878,0,0,0,0,0,0.0717,0.073,0.0741,0.0755,0.0761,0.0776,0.0786,0.0801,0.0817,0.0828,0.0851,0.0872,0.0887,0.0903,0.0915,0.0938,0.0943,0.0962,0.0966,0.097,0.0976,0.099,0.0996,0.0927,0.0927,0.0927,0,0,0.0717,0.0732,0.0738,0.0756,0.0767,0.078,0.0786,0.0807,0.0828,0.083,0.0875,0.0888,0.0895,0.0926,0.0942,0.0934,0.0996,0.0972,0.0975,0.0979,0.0992,0.0998,0.1005,0.0928,0.0928,0.0928,0,0,0.0723,0.074,0.0751,0.0761,0.0786,0.0795,0.0806,0.083,0.0852,0.0886,0.0896,0.0924,0.0956,0.0966,0.0973,0.1004,0.1015,0.1016,0.105,0.1063,0.1069,0.1074,0.1107,0.1115,0.1021,0.1021,0.1021,0,0.0726,0.0742,0.0755,0.077,0.0785,0.0806,0.0822,0.084,0.0874,0.0897,0.0911,0.0964,0.0974,0.1002,0.102,0.1016,0.1032,0.1032,0.1069,0.1074,0.1079,0.1112,0.112,0.1024,0.1023,0.1023,0.1023,0,0.0734,0.0753,0.0762,0.079,0.0807,0.0824,0.0851,0.0879,0.0917,0.0943,0.0995,0.1009,0.1041,0.1053,0.1052,0.1091,0.1097,0.1071,0.1058,0.1089,0.1121,0.1129,0.1027,0.1026,0.1026,0.1025,0,0,0.0719,0.0759,0.0765,0.0783,0.0821,0.0836,0.0873,0.091,0.0946,0.0992,0.1038,0.1075,0.1098,0.1106,0.1111,0.1129,0.1184,0.1125,0.1125,0.1163,0.1238,0.1182,0.1185,0.117,0.1171,0.1172,0.1255,0,0.0722,0.0754,0.0777,0.0812,0.0828,0.086,0.0897,0.094,0.0982,0.1033,0.1064,0.1116,0.1113,0.1145,0.1159,0.1179,0.1203,0.1165,0.1198,0.12,0.1149,0.1191,0.1175,0.1261,0.1262,0.1264,0.1265,0,0.0717,0.0744,0.0777,0.0831,0.0844,0.0871,0.0934,0.0975,0.1039,0.1076,0.1124,0.1157,0.1209,0.1193,0.1249,0.1229,0.1243,0.1251,0.1254,0.1189,0.1157,0.1218,0.1278,0.1277,0.1276,0.1275,0.1274,0,0.0694,0.0743,0.0775,0.079,0.0852,0.088,0.0926,0.0992,0.104,0.1115,0.1163,0.1211,0.1264,0.1277,0.1315,0.1291,0.137,0.1329,0.1291,0.1288,0.1293,0.1286,0.1359,0.1359,0.1359,0.1359,0.1358,0,0.0677,0.0702,0.0769,0.078,0.0832,0.0888,0.0952,0.0996,0.1076,0.1137,0.1196,0.1241,0.1291,0.1341,0.1342,0.1355,0.1394,0.1311,0.1304,0.1313,0.1307,0.13,0.1292,0.1362,0.1361,0.136,0.136,0,0.0639,0.0679,0.0715,0.0788,0.0818,0.0861,0.0963,0.1004,0.1096,0.1173,0.1209,0.1295,0.1363,0.1406,0.1447,0.1402,0.1407,0.1398,0.1442,0.1434,0.1311,0.1305,0.1357,0.1356,0.1355,0.1354,0.1353,0,0.0622,0.0637,0.0715,0.0739,0.0772,0.0848,0.0895,0.0997,0.1041,0.1191,0.1214,0.133,0.1376,0.1402,0.1434,0.145,0.1422,0.1423,0.1329,0.1323,0.1311,0.1306,0.1301,0.1351,0.1351,0.1351,0.135,0,0.0591,0.0622,0.0655,0.0702,0.0749,0.0805,0.0882,0.0907,0.1034,0.113,0.1206,0.1257,0.1335,0.1363,0.1405,0.1396,0.1415,0.141,0.1411,0.1323,0.1316,0.1304,0.1301,0.1347,0.1347,0.1347,0.1348,0,0.0574,0.0587,0.063,0.0666,0.0719,0.0744,0.0791,0.0858,0.0927,0.1088,0.1109,0.1227,0.1325,0.1337,0.1361,0.1372,0.1332,0.127,0.1277,0.1281,0.1215,0.1192,0.1191,0,0,0,0,0,0.056,0.0565,0.0591,0.0621,0.0664,0.0692,0.0775,0.0823,0.0943,0.0974,0.1045,0.1115,0.1183,0.123,0.1224,0.1306,0.1322,0.129,0.1248,0.1325,0.133,0.1256,0,0,0,0,0,0,0.0552,0.0572,0.0576,0.0578,0.0581,0.0625,0.0668,0.0741,0.0765,0.0893,0.0932,0.1045,0.1116,0.118,0.1201,0.1218,0.1168,0.1366,0.1364,0.1323,0.1327,0.133,0.1256,0,0,0,0,0]},{"header":{"parameterUnit":"m.s-1","parameterCategory":2,"la1":30.2991,"la2":30.254,"lo1":-89.0895,"lo2":-89.0444,"dy":0.0017,"dx":0.0017,"nx":28,"ny":28,"refTime":"2023-09-12T03:00:00:Z","depth":"4","parameterNumber":3,"parameterNumberName":"V-component_of_CURRENTS"},"data":[0,0,0,0,0,0,0,0,0,0,0,0,0,0,0,0,0,0,0,0,0,0,0,0,0,0,0,0,0,0,0,0,0,0,0,0,0,0,0,0,0,0,0,0,0,0,0,0,0,0,0,0,0,0,0,0,0,0,-0.0158,-0.0158,0,-0.0175,-0.0175,-0.0175,-0.0199,-0.02,-0.02,-0.02,-0.0241,-0.0242,-0.0243,0,0,0,0,0,0,0,0,0,0,0,0,0,-0.0153,-0.0153,-0.0158,-0.0158,-0.0158,-0.0175,-0.0175,-0.0175,-0.0199,-0.02,-0.02,-0.0201,-0.0241,-0.0242,-0.0243,0,0,0,0,0,0,0,0,0,0,0,0,0,-0.0161,-0.0153,-0.0158,-0.0172,-0.0173,-0.0175,-0.0175,-0.0175,-0.0199,-0.02,-0.02,-0.0201,-0.0241,-0.0242,-0.0243,-0.0238,0,0,-0.0246,-0.0247,0,0,0,0,0,0,0,0,-0.0161,-0.0162,-0.017,-0.0171,-0.0172,-0.0185,-0.0188,-0.0197,-0.0199,-0.019,-0.02,-0.0201,-0.0224,-0.0227,-0.0229,-0.024,-0.0242,-0.0246,-0.0247,-0.0247,-0.0248,0,0,0,0,0,0,0,-0.016,-0.0161,-0.0165,-0.017,-0.0171,-0.018,-0.0182,-0.019,-0.0204,-0.0191,-0.0192,-0.0193,-0.0225,-0.0227,-0.023,-0.0242,-0.0246,-0.0247,-0.0248,-0.0248,-0.0279,-0.0279,0,0,0,0,0,0,-0.0157,-0.016,-0.0164,-0.0165,-0.0168,-0.0179,-0.0181,-0.0181,-0.0204,-0.0207,-0.0193,-0.0194,-0.0225,-0.0229,-0.0231,-0.0247,-0.0247,-0.0249,-0.0249,-0.0279,-0.0279,-0.0279,0,0,0,0,0,0,-0.0156,-0.0157,-0.0164,-0.0163,-0.0165,-0.0179,-0.0178,-0.0181,-0.0186,-0.0205,-0.0209,-0.0196,-0.0226,-0.023,-0.0242,-0.0248,-0.0249,-0.025,-0.0278,-0.0279,-0.0279,-0.0265,0,0,0,0,0,0,-0.0156,-0.0156,-0.0158,-0.0163,-0.0164,-0.016,-0.0177,-0.0181,-0.0186,-0.0188,-0.0209,-0.0213,-0.0227,-0.0241,-0.0243,-0.0249,-0.0251,-0.0278,-0.0278,-0.0279,-0.0265,-0.0265,-0.0264,0,0,0,0,0,-0.0156,-0.0151,-0.0158,-0.0159,-0.0165,-0.0159,-0.0161,-0.0173,-0.0185,-0.0182,-0.0202,-0.0213,-0.0245,-0.0241,-0.0245,-0.0251,-0.0278,-0.0278,-0.0279,-0.0266,-0.0265,-0.0264,0,0,0,0,0,0,-0.0152,-0.0153,-0.0161,-0.0158,-0.0158,-0.0163,-0.0164,-0.0171,-0.0184,-0.0192,-0.0211,-0.0216,-0.0233,-0.0241,-0.0236,-0.0261,-0.0265,-0.0266,-0.0254,-0.0253,-0.0253,-0.0252,-0.0252,0,0,0,0,0,-0.0151,-0.0149,-0.015,-0.0149,-0.0148,-0.0156,-0.0158,-0.0166,-0.0175,-0.0182,-0.02,-0.022,-0.0235,-0.0242,-0.0259,-0.0266,-0.0281,-0.0273,-0.0273,-0.0272,-0.0274,-0.0298,-0.03,-0.028,-0.028,-0.028,0,0,-0.015,-0.0152,-0.015,-0.0149,-0.0152,-0.0146,-0.0159,-0.0159,-0.0161,-0.0184,-0.0199,-0.022,-0.0238,-0.0252,-0.026,-0.0259,-0.0287,-0.0273,-0.0272,-0.0274,-0.0299,-0.0301,-0.0303,-0.028,-0.028,-0.028,0,0,-0.0141,-0.0146,-0.0139,-0.0136,-0.0138,-0.0142,-0.0141,-0.0149,-0.0159,-0.0171,-0.0193,-0.0216,-0.0236,-0.0252,-0.0262,-0.0266,-0.0286,-0.0272,-0.0266,-0.0289,-0.0291,-0.0293,-0.0317,-0.0321,-0.0269,-0.0269,-0.0269,0,-0.0141,-0.0133,-0.0136,-0.0128,-0.0126,-0.0138,-0.013,-0.0136,-0.0152,-0.0162,-0.0175,-0.022,-0.0237,-0.0254,-0.026,-0.0265,-0.0282,-0.0266,-0.0289,-0.0291,-0.0293,-0.0317,-0.0322,-0.0268,-0.0268,-0.0268,-0.0268,0,-0.0124,-0.0119,-0.0113,-0.0108,-0.0107,-0.01,-0.0108,-0.0115,-0.0134,-0.015,-0.0179,-0.0207,-0.0233,-0.0244,-0.0254,-0.0277,-0.0285,-0.0287,-0.0289,-0.0294,-0.0319,-0.0325,-0.0267,-0.0267,-0.0268,-0.0268,0,0,-0.0115,-0.0103,-0.0102,-0.0096,-0.0096,-0.0091,-0.0094,-0.01,-0.0107,-0.0139,-0.0155,-0.0191,-0.0217,-0.0229,-0.0249,-0.0271,-0.0304,-0.0285,-0.0287,-0.0307,-0.0359,-0.0343,-0.0347,-0.0311,-0.0311,-0.0312,-0.0371,0,-0.01,-0.0081,-0.0082,-0.0067,-0.0056,-0.0065,-0.0066,-0.0079,-0.0099,-0.0119,-0.0158,-0.0182,-0.0206,-0.0222,-0.025,-0.029,-0.0317,-0.0288,-0.0353,-0.0355,-0.0338,-0.0352,-0.0314,-0.0375,-0.0376,-0.0377,-0.0378,0,-0.0083,-0.0072,-0.0054,-0.0045,-0.0042,-0.0038,-0.0044,-0.0046,-0.0075,-0.0093,-0.0127,-0.0159,-0.02,-0.0219,-0.0294,-0.0275,-0.0318,-0.0351,-0.0354,-0.0346,-0.0348,-0.037,-0.0387,-0.0387,-0.0386,-0.0385,-0.0385,0,-0.0072,-0.0054,-0.004,-0.0034,-0.0026,-0.0024,-0.0025,-0.0043,-0.0038,-0.0077,-0.0082,-0.0145,-0.0167,-0.0234,-0.0302,-0.0301,-0.0384,-0.039,-0.0417,-0.0417,-0.042,-0.0417,-0.0446,-0.0446,-0.0446,-0.0445,-0.0445,0,-0.0054,-0.0043,-0.0032,-0.0021,-0.0003,-0.0011,-0.0001,-0.0009,-0.0019,-0.0007,-0.0067,-0.0071,-0.0172,-0.0227,-0.0299,-0.0371,-0.0382,-0.0422,-0.0431,-0.0413,-0.0409,-0.0424,-0.042,-0.0448,-0.0447,-0.0447,-0.0446,0,-0.0045,-0.0037,-0.0017,-0.0003,0.0005,0.0014,0.0035,0.0044,0.0029,0.0045,0.0038,-0.0019,-0.0092,-0.0191,-0.0299,-0.0352,-0.0433,-0.0456,-0.043,-0.0436,-0.0454,-0.0449,-0.0498,-0.0498,-0.0498,-0.0498,-0.0498,0,-0.0038,-0.0027,0.0001,0.0021,0.0031,0.0049,0.0069,0.0069,0.009,0.0089,0.0104,0.0036,-0.0011,-0.0145,-0.0267,-0.0413,-0.0428,-0.0475,-0.047,-0.0455,-0.046,-0.0455,-0.0451,-0.0498,-0.0498,-0.0498,-0.0498,0,-0.0023,-0.0017,0.0003,0.005,0.0078,0.0112,0.0144,0.017,0.0181,0.0167,0.0179,0.0101,0.0016,-0.0117,-0.0234,-0.0337,-0.045,-0.0475,-0.0476,-0.0471,-0.0455,-0.0459,-0.0455,-0.0498,-0.0498,-0.0498,-0.0498,0,-0.0012,0.0005,0.0038,0.0083,0.0124,0.0177,0.0183,0.0221,0.0243,0.025,0.0252,0.0152,0.0085,-0.0077,-0.0183,-0.0289,-0.0318,-0.0346,-0.0354,-0.0356,-0.03,-0.0258,-0.0251,0,0,0,0,0,0.0005,0.0038,0.0075,0.0133,0.0175,0.0206,0.0244,0.0247,0.0265,0.0292,0.028,0.0208,0.0054,-0.0026,-0.0126,-0.0205,-0.0357,-0.0328,-0.0398,-0.0496,-0.0497,-0.0454,0,0,0,0,0,0,0.0021,0.0058,0.0084,0.0174,0.0221,0.0276,0.0303,0.0307,0.0322,0.032,0.0239,0.0196,0.0036,0.0126,-0.0119,-0.0157,-0.0213,-0.0409,-0.0411,-0.0496,-0.0496,-0.0497,-0.0453,0,0,0,0,0]}]]